FW6330 Weather Reports


Display with metric or nautical units.
time (UTC)temp
F
wind
direction
speed
MPH
gust
MPH
rain 1hr
in
rain 24hr
in
rain mn
in
humidity
%
barometer
mb
20260906150049 50 82 0.0 0.0 0.00 0.00 0.00 70 1017.5
20260906144544 46 219 0.0 1.0 0.00 0.00 0.00 76 1017.5
20260906143040 43 6 0.0 0.0 0.00 0.00 0.00 80 1017.3
20260906141540 0 0.0 0.0 0.00 0.00 0.00 1017.2
20260906140042 0 0.0 0.0 0.00 0.00 0.00 1017.2
20260906134526 0 4 0.0 0.0 0.00 0.00 0.00 86 1017.5
20260906133025 38 222 0.0 0.0 0.00 0.00 0.00 86 1017.3
20260906131533 37 204 0.0 0.0 0.00 0.00 0.00 86 1017.1
20260906130023 37 190 0.0 0.0 0.00 0.00 0.00 86 1017.2
20260906124523 37 66 0.0 0.0 0.00 0.00 0.00 86 1017.1
20260906123021 37 2 0.0 0.0 0.00 0.00 0.00 87 1017.1
20260906121520 37 321 0.0 0.0 0.00 0.00 0.00 87 1016.9
20260906120022 36 239 0.0 0.0 0.00 0.00 0.00 89 1016.8
20260906114525 37 147 0.0 0.0 0.00 0.00 0.00 89 1016.7
20260906113016 37 272 0.0 0.0 0.00 0.00 0.00 88 1016.7
20260906111515 37 272 0.0 0.0 0.00 0.00 0.00 88 1016.6
20260906110013 37 93 0.0 0.0 0.00 0.00 0.00 88 1016.4
20260906104511 38 127 0.0 0.0 0.00 0.00 0.00 88 1016.4
20260906103011 38 30 0.0 0.0 0.00 0.00 0.00 87 1016.3
20260906101507 38 278 0.0 0.0 0.00 0.00 0.00 87 1016.3
20260906100005 39 85 0.0 0.0 0.00 0.00 0.00 87 1016.3
20260906094502 39 50 0.0 0.0 0.00 0.00 0.00 86 1016.3
20260906093005 39 165 0.0 0.0 0.00 0.00 0.00 86 1016.2
20260906091501 40 352 0.0 0.0 0.00 0.00 0.00 85 1016.1
20260906090137 40 96 0.0 0.0 0.00 0.00 0.00 84 1016.1
20260906084616 40 194 0.0 1.0 0.00 0.00 0.00 83 1016.1
20260906083058 40 238 0.0 1.0 0.00 0.00 0.00 83 1016.0
20260906081600 39 140 0.0 0.0 0.00 0.00 0.00 83 1015.9
20260906080107 39 185 0.0 0.0 0.00 0.00 0.00 83 1015.7
20260906074559 39 312 0.0 0.0 0.00 0.00 0.00 84 1015.6
20260906073054 40 141 0.0 0.0 0.00 0.00 0.00 84 1015.5
20260906071551 40 154 0.0 1.0 0.00 0.00 0.00 86 1015.5
20260906070049 40 347 0.0 0.0 0.00 0.00 0.00 88 1015.4
20260906064549 40 96 0.0 0.0 0.00 0.00 0.00 88 1015.4
20260906063050 40 279 0.0 0.0 0.00 0.00 0.00 89 1015.3
20260906061549 41 179 0.0 0.0 0.00 0.00 0.00 89 1015.1
20260906060044 41 150 0.0 0.0 0.00 0.00 0.00 89 1015.0
20260906054545 41 58 0.0 0.0 0.00 0.00 0.00 89 1014.9
20260906053049 41 53 0.0 0.0 0.00 0.00 0.00 89 1014.7
20260906051540 41 1 0.0 0.0 0.00 0.00 0.00 89 1014.7
20260906050039 42 275 0.0 0.0 0.00 0.00 0.00 89 1014.5
20260906044538 42 136 0.0 0.0 0.00 0.00 0.00 88 1014.2
20260906043038 42 269 0.0 0.0 0.00 0.00 0.00 87 1014.2
20260906041545 43 313 0.0 0.0 0.00 0.00 0.00 87 1014.0
20260906040035 43 20 0.0 0.0 0.00 0.00 0.00 86 1013.6
20260906034541 43 295 0.0 0.0 0.00 0.00 0.00 87 1013.4
20260906033030 44 70 0.0 0.0 0.00 0.00 0.00 85 1013.1
20260906031533 45 199 0.0 0.0 0.00 0.00 0.00 84 1012.9
20260906030032 46 160 0.0 0.0 0.00 0.00 0.00 82 1012.7
20260906024520 47 122 0.0 0.0 0.00 0.00 0.00 80 1012.6
20260906023018 49 160 0.0 0.0 0.00 0.00 0.00 79 1012.4
20260906021513 50 13 0.0 0.0 0.00 0.00 0.00 76 1012.4
20260906020009 51 88 0.0 0.0 0.00 0.00 0.00 74 1012.2
20260906014522 52 66 0.0 1.0 0.00 0.00 0.00 72 1012.2
20260906013007 53 129 0.0 4.0 0.00 0.00 0.00 70 1012.2
20260906011505 54 342 0.0 2.0 0.00 0.00 0.00 69 1012.0
20260906010020 54 131 0.0 4.0 0.00 0.00 0.00 68 1011.9
20260906004504 55 22 1.0 5.0 0.00 0.00 0.00 68 1012.0
20260906003004 55 126 0.0 4.0 0.00 0.00 0.00 67 1011.9
20260906001503 56 64 0.0 4.0 0.00 0.00 0.00 65 1012.0
20260906000004 57 163 0.0 6.0 0.00 0.00 0.00 65 1011.8
20260905234504 57 182 0.0 7.0 0.00 0.00 0.00 63 1011.8
20260905233001 57 350 2.0 8.0 0.00 0.00 0.00 63 1011.7
20260905231502 57 127 1.0 6.0 0.00 0.00 0.00 62 1011.8
20260905230120 58 321 2.0 8.0 0.00 0.00 0.00 61 1011.9
20260905224601 59 79 0.0 4.0 0.00 0.00 0.00 61 1012.0
20260905223058 57 205 1.0 6.0 0.00 0.00 0.00 62 1012.2
20260905221558 57 170 1.0 4.0 0.00 0.00 0.00 62 1012.2
20260905220059 57 196 0.0 7.0 0.00 0.00 0.00 62 1012.2
20260905214559 57 212 1.0 6.0 0.00 0.00 0.00 62 1012.3
20260905213058 57 18 0.0 7.0 0.00 0.00 0.00 62 1012.5
20260905211553 58 156 0.0 4.0 0.00 0.00 0.00 62 1012.4
20260905210056 56 103 1.0 7.0 0.00 0.00 0.00 63 1012.5
20260905204552 57 250 1.0 11.0 0.00 0.00 0.00 62 1012.5
20260905203058 57 269 1.0 6.0 0.00 0.00 0.00 62 1012.5
20260905201603 56 246 0.0 9.0 0.00 0.00 0.00 64 1012.6
20260905200050 57 69 0.0 9.0 0.00 0.00 0.00 63 1012.6
20260905194549 56 27 0.0 3.0 0.00 0.00 0.00 65 1012.5
20260905193048 55 115 0.0 4.0 0.00 0.00 0.00 65 1012.7
20260905191546 56 313 1.0 3.0 0.00 0.00 0.00 65 1012.9
20260905190145 56 168 0.0 5.0 0.00 0.00 0.00 63 1012.7
20260905184547 56 147 0.0 5.0 0.00 0.00 0.00 65 1012.8
20260905183106 56 110 1.0 6.0 0.00 0.00 0.00 61 1012.8
20260905181540 55 202 2.0 8.0 0.00 0.00 0.00 63 1012.6
20260905180049 54 162 1.0 8.0 0.00 0.00 0.00 66 1012.2
20260905174538 53 243 0.0 4.0 0.00 0.00 0.00 72 1011.9
20260905173032 51 46 0.0 4.0 0.00 0.00 0.00 73 1011.2
20260905171528 0 0.0 0.0 0.00 0.00 0.00 1010.8
20260905170023 0 0.0 0.0 0.00 0.00 0.00 1010.8
20260905164519 0 0.0 0.0 0.00 0.00 0.00 1010.9
20260905163017 0 0.0 0.0 0.00 0.00 0.00 1011.0
20260905161510 0 0.0 0.0 0.00 0.00 0.00 1011.0
20260905160006 0 0.0 0.0 0.00 0.00 0.00 1011.2
20260905154501 0 0.0 0.0 0.00 0.00 0.00 1011.4
20260905153057 0 0.0 0.0 0.00 0.00 0.00 1011.9
20260905151553 0 0.0 0.0 0.00 0.00 0.00 1012.1